THOR ABLESTAR DEB, 123

Orbit data source: Space-Track

THOR ABLESTAR DEB, 123 is space debris in LEO originally from a launch on Thu, 29 Jun 1961 UTC launched from the Air Force Eastern Test Range (AFETR). Debris objects in space refer to the collection of defunct objects orbiting the Earth. Examples of debris include non-operational satellites, rocket bodies, and fragments generated from explosions, collisions, or faulty payload assembly.

Loading next visibility...
Identifier
123, 1961-015H
Orbit
LEO
Country
Flag of USUS
Related business
Manufacturer
Unknown
Mission
Spacecraft
Bus & Motor
Unknown
Mass
Unknown
Launch date (UTC)
1961-06-29 (65 years ago)
Launch vehicle
Unknown
Launch site
Air Force Eastern Test Range (AFETR)
Object type
Payload
Rocket body
Debris
Shape & HBR
Unknown shape, 0.3 m
Radar Cross Section
Medium (>0.1 m² and <1 m²)

Expand to show TLE details & history
Last TLE update: 15 hours ago

TLE from 15 hours ago
0 THOR ABLESTAR DEB
1   123U 61015H   26178.25015260  .00000424  00000-0  14717-3 0  9997
2   123  66.6866  41.0785 0116212 262.3113  96.4782 14.41707565380986
Epoch: 2026-06-27T06:00Z
TLE epoch observation values (Epoch: 2026-06-27T06:00:13.184Z)
Latitude
0.00001°
Longitude
35.65657°
Altitude
765.28 km
Speed
7.467 km/s
True Right ascension
02h 44m 18s
True Declination
0° 00' 00"
Sunlit
Object was in daylight at epoch
Visualization orbit readout
Latitude
Unknown
Longitude
Unknown
Altitude
Unknown
Speed
Unknown
Apparent Right ascension
Unknown
Apparent Declination
Unknown
Sunlit
N/A
Visualization observer readout
Local Sidereal Time
08:17:15
Azimuth
Unknown
Elevation
Unknown
Doppler factor
Unknown
Orbital elements
Apogee altitude
834.081 km
Perigee altitude
668.378 km
Semi-major axis
7,129.367 km
Eccentricity
0.01162
Inclination
66.6866°
RAAN
41.0785°
Arg. of periapsis
262.3113°
True anomaly
97.79911°
Mean anomaly
96.4782°
Eccentric anomaly
97.13888°
Mean motion
3.60551 °/min
Orbital period
99.85 mins
BSTAR
0.00014717
Loading maneuver chart data...
Computing Atmospheric mass density...

Documentation

Showing up to 5 results
|